Starlink 5554

operational
NORAD ID: 56338 Int'l Des: 2023-058 Owner: SPXS Country: US Constellation: starlink
LEOCIRCULARRETROGRADESSO

关于 Starlink 5554

正在加载描述...

实时位置

正在加载3D地球...

即将过境

高度历史

Altitude vs Time

uPlot chart will show altitude changes over time

两行轨道根数

1 56338U 23058X 25260.95300311 .00000723 00000-0 60807-4 0 9997
2 56338 97.6026 261.1002 0002015 86.7928 273.3527 15.01261836132218
Epoch: Sep 17, 2025 • Age: 12 hours

当前状态

高度 575.0 km
速度 7.58 km/s
星下点 80.83°N, 52.01°E
发射日期 Apr 27, 2023
运行时间 2.3 years
类型 internet

技术详情

分类 Payload
质量 300.00 kg
干质量 260.00 kg
总质量 300.00 kg
长度 0.20 m
直径 2.80 m
跨度 9.00 m
形状 Box + pan
制造商 SPXS
平台类型 Starlink
阶段状态 In Orbit
所有者/国家 SPXS/US

大型星座

Loading constellations...